Wind_Speed
29 30 31 30 30 30 28 29 29 30 32 34 35 35 36 36 36 35 35 35 36 36 36 37 35 35 35 34 34 35 34 34 34 33 32 33 32 32 31 31 31 30 30
30 30 31 30 31 30 29 28 29 30 31 33 34 34 35 36 36 36 35 36 37 36 36 37 37 37 36 36 34 35 35 35 34 34 34 34 34 34 33 33 32 32 32
30 30 32 31 31 31 29 29 28 29 29 31 32 34 36 36 35 35 35 36 38 38 37 36 38 38 38 37 36 36 36 36 36 35 35 34 35 34 34 34 34 34 33
31 31 32 32 30 31 31 31 30 29 31 31 32 34 35 35 35 35 35 36 37 38 38 38 39 39 39 39 38 36 36 37 37 37 37 36 36 36 35 35 35 35 35
32 33 33 32 31 31 32 32 31 30 30 31 32 33 34 33 34 35 36 36 37 38 39 38 39 40 40 40 40 38 37 37 37 38 38 38 37 37 37 37 37 37 36
32 33 33 34 34 33 34 33 31 32 31 31 31 33 34 33 33 35 36 36 37 39 40 39 39 40 41 41 41 41 40 40 40 40 40 39 39 39 39 39 38 38 37
33 33 33 34 34 35 34 33 34 33 33 32 32 33 34 34 34 35 36 37 38 38 39 40 39 40 41 42 43 43 42 42 42 42 42 41 41 39 39 40 40 40 39
34 34 34 34 35 35 35 35 35 35 35 34 34 34 35 35 35 36 36 37 38 39 40 41 41 41 42 42 42 44 45 44 43 42 43 43 42 41 40 41 41 42 42
34 36 35 34 35 35 36 36 36 37 37 37 36 36 36 36 36 37 38 38 39 41 41 42 42 43 44 44 44 43 44 45 45 45 44 44 44 43 43 43 44 43 43
35 35 36 35 34 35 36 36 37 38 38 38 37 37 37 37 37 37 39 40 41 41 42 42 43 43 44 44 44 44 44 44 44 45 45 46 46 46 46 45 45 45 45
36 36 36 37 37 37 37 37 37 38 38 38 38 38 38 38 39 38 39 41 41 42 43 43 43 43 44 44 44 44 45 44 45 45 46 47 47 46 46 46 46 47 47
38 39 39 38 39 40 40 39 39 39 39 39 40 39 39 39 39 39 39 40 41 42 43 43 43 44 45 45 46 46 46 46 46 47 47 47 48 48 48 48 49 49 50
39 40 40 40 40 41 42 42 41 41 41 41 41 41 41 41 40 41 41 42 44 45 45 45 45 45 45 45 46 47 48 48 48 47 47 48 50 50 50 50 51 51 51
39 40 41 40 41 41 42 42 42 43 42 43 42 41 41 41 42 42 42 43 45 46 46 46 47 47 47 47 48 48 49 49 49 49 49 50 51 52 52 53 53 52 52
39 40 41 41 41 42 42 42 42 44 44 44 43 43 42 42 43 43 43 44 45 46 47 47 47 48 48 49 49 49 50 50 51 51 51 51 52 53 54 54 53 53 53
39 40 41 41 41 41 41 42 42 43 44 44 44 44 44 44 44 44 45 45 46 47 48 48 49 49 49 49 50 50 51 52 52 52 52 52 53 54 55 55 55 54 54
39 40 40 40 40 41 41 42 43 43 44 45 46 46 46 46 46 46 46 46 47 48 49 50 51 51 51 51 51 51 52 52 52 53 53 53 54 55 56 56 56 56 55
40 41 41 41 41 42 43 43 44 45 46 47 47 47 48 48 49 49 49 49 49 50 50 51 52 52 52 52 52 51 52 53 53 54 55 55 55 55 56 57 57 57 56
40 41 42 43 42 43 43 43 45 46 47 47 48 48 48 49 50 51 51 51 51 51 51 52 52 53 53 53 53 53 53 53 54 54 55 55 55 55 56 57 57 57 56
39 40 41 42 42 42 43 43 44 45 46 47 48 49 49 50 50 51 51 51 52 52 51 52 53 53 53 53 53 52 53 53 53 54 54 54 55 55 56 56 57 57 56
39 39 40 40 41 41 43 43 44 45 46 48 49 49 50 50 50 50 50 50 51 51 51 51 52 52 53 53 53 53 53 53 53 53 53 53 54 54 55 55 56 56 56
38 39 40 41 41 41 43 44 44 44 46 47 48 48 49 48 48 48 49 49 49 49 50 50 50 51 51 52 52 52 52 52 52 52 51 52 52 53 53 54 54 53 54
38 39 40 40 40 40 40 41 41 43 44 45 46 46 47 47 47 47 48 48 48 48 49 49 49 49 50 50 50 51 51 51 51 51 51 51 51 51 51 51 52 52 53
39 40 40 40 40 40 41 40 41 41 42 43 44 44 45 46 46 46 46 47 47 47 47 48 48 48 49 49 49 49 50 51 51 51 50 50 50 50 50 50 51 51 51
37 38 40 40 40 40 40 40 41 41 42 42 43 44 44 45 45 45 45 46 46 46 46 46 47 47 47 47 48 49 49 50 50 50 50 50 49 48 49 49 50 50 50
35 36 37 39 39 40 40 40 40 40 41 42 42 43 43 44 44 44 44 45 45 45 45 46 46 46 46 47 48 48 48 48 48 48 48 47 47 48 48 48 49 49 50
Wind_Direction
237 236 233 232 232 232 233 232 233 232 230 230 230 231 232 234 233 233 237 238 239 241 243 244 246 249 251 252 254 254 254 256 258 258 259 258 258 260 262 264 268 271 273
237 236 235 232 233 234 234 234 235 231 230 231 233 232 233 234 235 236 239 239 240 242 245 245 246 249 251 251 252 253 254 255 257 259 259 258 258 259 261 264 267 270 272
237 237 235 234 233 232 234 234 236 235 235 235 234 233 233 234 236 237 240 240 241 242 244 245 245 247 249 251 253 253 254 255 256 257 259 259 259 260 261 264 267 269 270
237 236 236 235 235 234 235 236 238 238 237 237 236 235 236 237 239 241 243 242 243 243 245 246 247 248 250 251 253 255 255 256 257 257 258 260 261 261 263 264 266 268 268
238 237 238 236 234 236 236 238 238 238 239 240 239 237 237 240 241 242 243 243 244 244 245 247 249 250 251 252 252 255 256 257 258 259 260 261 261 262 262 263 265 266 267
240 238 238 236 235 237 236 237 238 239 241 243 242 241 239 241 243 245 243 244 245 246 247 249 250 253 254 254 254 256 257 258 259 260 259 261 261 263 262 262 263 265 267
240 240 238 238 237 237 237 237 239 239 241 242 242 243 242 241 244 247 246 246 247 248 249 250 252 255 256 255 256 256 258 260 261 260 260 259 260 261 262 262 263 264 265
242 241 240 240 238 238 238 240 240 242 242 242 242 245 244 243 246 247 247 249 251 251 251 252 254 256 258 259 259 259 259 260 261 260 260 259 260 260 261 262 264 264 264
243 242 240 241 238 238 239 241 243 244 244 244 245 247 246 245 246 248 249 251 252 253 254 254 257 258 259 261 262 261 262 261 261 260 260 260 259 261 262 262 264 266 266
244 242 240 240 240 239 240 243 244 244 245 246 248 248 248 249 249 250 251 252 253 254 255 257 258 259 260 260 260 261 262 262 262 261 260 260 260 261 263 265 266 267 267
245 243 242 242 242 242 241 243 245 246 246 247 248 250 251 251 251 252 254 254 254 256 256 258 259 260 260 260 260 261 262 262 261 261 261 261 260 261 261 263 265 267 268
247 245 244 244 245 245 244 245 245 245 247 247 248 250 252 253 254 254 256 256 256 257 258 259 260 260 260 260 260 260 261 261 262 262 261 261 260 260 262 263 265 267 268
248 247 246 245 245 245 246 246 246 247 248 249 250 251 253 255 255 257 259 259 258 258 258 259 259 260 260 261 261 260 261 261 263 263 262 262 260 262 263 265 266 267 269
251 249 248 248 247 247 247 247 248 248 249 250 251 253 254 255 258 260 261 261 260 259 259 260 261 262 262 263 263 262 262 263 265 265 264 263 263 264 266 267 268 268 270
251 250 249 249 249 249 249 249 250 249 249 251 252 253 254 257 259 261 263 263 263 262 261 262 263 265 265 265 265 265 264 264 264 264 265 265 264 265 267 267 268 269 269
251 250 249 249 250 251 250 251 251 250 250 251 253 254 255 257 259 261 262 263 264 264 263 263 265 266 266 267 266 265 265 265 265 266 266 266 266 267 268 268 269 270 270
251 251 250 249 249 249 250 250 251 251 251 253 254 255 256 257 258 260 261 262 264 264 264 264 265 265 265 265 266 266 266 266 267 268 267 268 268 269 269 270 270 271 271
251 251 251 251 251 250 251 251 252 252 253 254 255 256 257 258 259 260 261 263 264 265 264 265 265 265 265 265 266 266 267 268 268 268 268 269 269 270 270 270 271 271 271
252 252 252 252 252 251 252 253 254 254 255 256 257 257 258 260 261 261 262 264 265 266 266 265 265 265 266 266 267 267 268 269 270 270 270 270 270 271 271 271 271 271 271
253 253 252 252 252 252 252 254 255 255 256 257 258 259 260 262 262 263 263 265 266 266 266 266 267 267 267 268 268 268 269 271 271 271 271 271 270 270 270 271 271 271 270
254 254 253 253 254 254 254 255 255 256 257 258 259 260 260 262 263 263 264 266 266 267 267 267 267 268 268 268 269 270 271 272 273 273 271 270 270 270 270 270 270 270 270
254 255 255 255 256 256 256 257 258 258 258 259 260 261 262 263 264 265 266 267 268 268 269 269 269 269 269 269 269 270 271 272 272 272 271 270 270 270 270 270 270 270 270
254 255 256 257 257 258 258 259 260 261 262 262 263 263 263 264 265 266 267 268 268 269 269 270 270 271 271 270 270 271 271 272 272 272 271 270 270 270 269 269 269 269 270
255 255 255 256 257 258 258 260 262 263 263 264 264 264 264 264 265 266 268 268 269 270 270 271 271 271 271 271 270 270 271 271 271 271 271 270 270 269 269 268 269 270 270
256 256 255 255 256 256 258 259 261 263 264 264 263 264 265 265 266 267 267 268 269 271 271 271 272 272 271 270 270 271 271 271 271 270 270 270 269 268 268 268 269 270 271
256 256 255 255 255 257 258 259 261 263 264 265 265 265 265 265 265 266 267 268 269 270 271 272 272 272 271 270 271 271 271 271 270 270 269 268 267 267 268 269 270 270 271
Height
5709 5711 5714 5717 5720 5723 5726 5729 5732 5735 5737 5740 5744 5747 5751 5754 5757 5761 5764 5767 5771 5774 5777 5779 5781 5783 5785 5787 5788 5789 5790 5791 5792 5793 5795 5796 5797 5798 5799 5800 5800 5801 5800
5702 5705 5708 5712 5715 5718 5721 5724 5726 5729 5732 5735 5738 5741 5744 5747 5750 5753 5756 5759 5763 5766 5768 5771 5773 5775 5777 5779 5780 5781 5782 5783 5784 5786 5787 5788 5790 5791 5792 5793 5793 5793 5793
5696 5699 5702 5706 5709 5713 5716 5718 5721 5723 5725 5728 5730 5733 5737 5739 5743 5746 5749 5752 5754 5757 5760 5762 5765 5767 5769 5770 5772 5773 5774 5775 5777 5778 5779 5781 5782 5784 5785 5785 5785 5785 5786
5690 5693 5697 5700 5703 5707 5709 5712 5714 5717 5719 5721 5724 5727 5730 5733 5736 5739 5741 5744 5746 5749 5752 5754 5757 5759 5760 5762 5764 5765 5766 5767 5769 5770 5771 5773 5774 5775 5777 5778 5778 5778 5778
5683 5687 5690 5694 5697 5700 5703 5705 5708 5710 5713 5715 5718 5721 5724 5727 5729 5732 5734 5736 5738 5741 5744 5746 5748 5750 5752 5753 5755 5757 5758 5759 5761 5762 5763 5764 5765 5766 5768 5769 5770 5770 5769
5676 5679 5683 5686 5689 5692 5696 5699 5701 5704 5707 5709 5711 5714 5717 5719 5722 5724 5726 5728 5731 5733 5736 5738 5740 5741 5743 5745 5746 5748 5749 5751 5752 5753 5754 5755 5756 5757 5758 5760 5760 5761 5761
5667 5671 5674 5678 5681 5685 5688 5692 5695 5697 5700 5702 5704 5706 5709 5712 5715 5717 5719 5721 5723 5725 5728 5729 5731 5732 5734 5735 5736 5738 5739 5741 5742 5743 5744 5745 5746 5748 5749 5750 5751 5752 5752
5660 5663 5667 5670 5673 5677 5680 5684 5687 5690 5692 5695 5697 5699 5702 5704 5707 5709 5711 5713 5715 5717 5719 5720 5721 5723 5724 5725 5727 5728 5729 5730 5731 5733 5734 5735 5736 5738 5739 5740 5741 5742 5743
5652 5655 5658 5661 5665 5668 5672 5675 5678 5681 5684 5687 5689 5691 5694 5696 5699 5700 5703 5705 5706 5708 5709 5711 5712 5713 5714 5715 5716 5717 5718 5719 5721 5722 5723 5725 5726 5727 5728 5730 5731 5732 5732
5643 5646 5650 5653 5657 5660 5663 5667 5670 5672 5675 5678 5681 5683 5685 5688 5690 5691 5693 5695 5697 5698 5699 5700 5701 5702 5703 5704 5705 5706 5707 5708 5710 5711 5713 5714 5715 5716 5718 5718 5719 5720 5721
5634 5637 5641 5644 5648 5651 5654 5658 5661 5664 5666 5669 5671 5673 5676 5678 5680 5682 5684 5685 5687 5688 5689 5690 5690 5691 5692 5693 5694 5695 5696 5697 5698 5699 5701 5702 5704 5705 5706 5707 5708 5708 5709
5624 5628 5631 5634 5638 5641 5644 5647 5651 5654 5656 5659 5661 5664 5666 5668 5670 5672 5673 5674 5675 5676 5677 5678 5679 5680 5681 5681 5682 5683 5684 5685 5687 5687 5689 5690 5692 5693 5694 5695 5695 5696 5696
5615 5618 5621 5624 5628 5631 5634 5637 5641 5644 5646 5648 5651 5653 5655 5657 5659 5661 5662 5663 5664 5664 5665 5666 5667 5668 5669 5669 5670 5671 5672 5673 5674 5675 5676 5678 5679 5680 5681 5682 5682 5683 5683
5605 5608 5611 5614 5617 5620 5623 5626 5629 5632 5635 5637 5639 5642 5644 5645 5647 5648 5649 5650 5651 5652 5653 5654 5655 5656 5656 5657 5658 5658 5659 5660 5661 5662 5663 5665 5666 5667 5668 5668 5668 5669 5669
5595 5597 5600 5603 5606 5609 5612 5615 5618 5620 5623 5625 5628 5630 5632 5633 5635 5636 5637 5638 5638 5639 5640 5641 5642 5642 5643 5644 5644 5644 5645 5647 5648 5649 5650 5651 5651 5652 5653 5654 5654 5654 5654
5585 5587 5590 5592 5595 5598 5601 5603 5606 5608 5611 5614 5616 5618 5620 5621 5622 5623 5624 5624 5625 5626 5627 5628 5628 5629 5629 5630 5630 5630 5631 5632 5633 5634 5635 5636 5637 5637 5638 5638 5639 5639 5639
5574 5577 5579 5581 5584 5587 5589 5592 5594 5596 5599 5601 5603 5605 5607 5608 5609 5610 5611 5611 5612 5612 5613 5614 5614 5615 5615 5616 5616 5616 5617 5618 5618 5619 5620 5621 5621 5622 5622 5622 5623 5623 5622
5563 5565 5568 5570 5572 5575 5577 5579 5582 5584 5586 5588 5590 5591 5593 5595 5596 5597 5597 5598 5598 5598 5598 5599 5599 5600 5600 5601 5601 5601 5602 5602 5603 5604 5604 5605 5605 5605 5605 5606 5606 5606 5606
5552 5554 5556 5558 5561 5563 5565 5567 5569 5571 5573 5574 5576 5578 5579 5580 5582 5583 5583 5583 5583 5584 5584 5584 5584 5584 5585 5585 5586 5586 5586 5587 5588 5588 5588 5588 5589 5589 5589 5589 5590 5590 5590
5540 5542 5544 5546 5549 5551 5552 5554 5556 5558 5559 5561 5562 5563 5565 5566 5567 5568 5569 5569 5569 5569 5569 5569 5569 5569 5570 5570 5570 5571 5571 5572 5572 5572 5572 5572 5572 5572 5571 5571 5572 5573 5573
5528 5530 5532 5534 5536 5538 5540 5541 5543 5545 5546 5547 5548 5550 5550 5551 5552 5553 5554 5553 5554 5554 5554 5554 5554 5554 5554 5554 5554 5555 5555 5555 5556 5556 5556 5556 5556 5556 5555 5555 5556 5556 5556
5518 5519 5521 5523 5525 5526 5527 5529 5530 5531 5533 5534 5535 5536 5536 5537 5537 5538 5538 5539 5539 5539 5539 5539 5539 5538 5539 5539 5539 5539 5539 5540 5540 5541 5541 5540 5540 5540 5540 5540 5540 5540 5539
5507 5508 5510 5511 5513 5514 5515 5516 5517 5518 5519 5520 5521 5522 5522 5523 5523 5524 5524 5524 5524 5524 5525 5524 5525 5524 5524 5524 5524 5524 5524 5524 5524 5524 5525 5525 5524 5524 5524 5524 5524 5523 5523
5495 5497 5498 5500 5501 5502 5503 5504 5505 5506 5506 5507 5508 5508 5509 5510 5510 5510 5510 5510 5510 5510 5510 5510 5510 5510 5510 5510 5509 5509 5509 5509 5508 5508 5509 5509 5508 5508 5508 5508 5508 5508 5508
5484 5485 5487 5488 5489 5491 5492 5493 5493 5494 5495 5495 5496 5496 5496 5497 5497 5497 5497 5497 5497 5496 5496 5496 5496 5496 5496 5496 5495 5494 5494 5494 5493 5493 5493 5493 5493 5493 5493 5493 5493 5493 5493
5472 5474 5475 5477 5478 5479 5481 5482 5482 5483 5483 5483 5484 5484 5484 5484 5484 5484 5484 5484 5484 5483 5483 5482 5482 5482 5482 5481 5480 5479 5479 5478 5478 5477 5478 5478 5478 5478 5479 5479 5479 5478 5478